Simultaneous Nadir Overpasses (SNOs) Predictions

Prediction of SNOs between FY3D and LANDSAT-8 Satellite Orbit:

Table of predicted SNOs for the next 14.0 days since TLE Epoch: 2/5/2022
Index Date (FY3D) Time (FY3D) Lat,Lon (FY3D) SZA (FY3D ) Date (LANDSAT-8) Time (LANDSAT-8) Lat,Lon (LANDSAT-8) SZA (LANDSAT-8 ) Distance(km) Time Diff (sec)
1 02/05/2022 14:21:42 72.42, -38.27 88.24 02/05/2022 14:22:49 72.31, -35.88 88.06 81.56 67
2 02/05/2022 15:12:11 -71.61, 130.60 92.63 02/05/2022 15:12:30 -71.60, 130.51 92.65 3.37 19
3 02/05/2022 16:02:56 71.52, -61.94 87.27 02/05/2022 16:01:57 71.51, -61.99 87.26 2.66 59
4 02/08/2022 05:48:47 -72.24, -89.69 92.77 02/08/2022 05:49:56 -72.10, -88.02 92.97 58.94 69
5 02/08/2022 06:39:22 71.65, 78.75 86.59 02/08/2022 06:39:30 71.63, 78.82 86.57 3.00 8
6 02/08/2022 07:30:04 -71.50,-113.67 93.58 02/08/2022 07:29:00 -71.51,-113.75 93.56 2.90 64
7 02/10/2022 21:15:50 71.88,-140.76 85.99 02/10/2022 21:17:02 71.80,-140.30 85.89 18.22 72
8 02/10/2022 22:06:30 -71.63, 27.01 94.28 02/10/2022 22:06:33 -71.63, 27.04 94.29 1.19 3
9 02/10/2022 22:57:13 71.44,-165.33 85.51 02/10/2022 22:56:01 71.48,-165.56 85.56 8.87 72
10 02/13/2022 12:42:54 -71.71, 167.79 95.06 02/13/2022 12:44:05 -71.73, 167.82 95.06 1.90 71
11 02/13/2022 13:33:39 71.63, -24.74 84.84 02/13/2022 13:33:32 71.63, -24.71 84.84 1.37 7
12 02/13/2022 14:24:17 -71.28, 143.19 95.54 02/13/2022 14:23:05 -71.36, 142.47 95.44 27.05 72
13 02/16/2022 04:10:04 71.71, 116.03 84.03 02/16/2022 04:11:05 71.72, 116.04 84.03 0.81 61
14 02/16/2022 05:00:47 -71.62, -76.50 96.08 02/16/2022 05:00:35 -71.60, -76.51 96.10 1.92 12
15 02/16/2022 05:51:20 70.91, 92.06 83.17 02/16/2022 05:50:12 70.96, 90.09 83.28 71.89 68
16 02/18/2022 19:37:12 -71.71, 64.27 96.91 02/18/2022 19:38:07 -71.73, 64.31 96.89 2.98 55
17 02/18/2022 20:27:57 71.62,-128.26 82.99 02/18/2022 20:27:34 71.63,-128.23 83.00 1.66 23



Historial Predications of SNOs between FY3D and LANDSAT-8
